Temp
64 64 63 63 63 63 63 63 63 63 63 63 63 63 63 63 63 83 95 93 91 74 76 102 104 104 107 102 102 85 62 56 76 69 82 91 85 90 92 86 86 82 78 88 93
63 63 63 63 63 63 62 62 63 63 63 63 63 63 63 63 86 98 86 77 77 76 97 101 101 105 100 101 100 71 59 79 90 90 86 89 86 85 83 82 81 83 88 91 92
63 63 63 63 63 62 62 62 62 62 63 63 63 63 62 67 89 100 81 76 77 81 100 105 106 98 88 101 98 92 83 91 91 93 92 88 86 89 81 76 80 80 84 87 87
62 63 62 62 62 62 62 62 62 63 62 62 62 62 62 84 85 100 79 78 78 96 102 103 96 88 87 86 91 89 93 93 93 94 92 87 86 84 84 81 87 87 87 87 85
62 62 62 62 62 62 62 62 62 61 61 61 61 62 78 89 97 96 79 82 96 99 101 102 95 93 90 82 81 91 92 93 94 93 91 91 84 81 80 85 87 87 87 85 84
61 61 61 61 61 61 61 61 60 60 61 61 62 61 86 86 109 102 100 101 103 105 105 107 100 102 91 85 83 94 91 92 93 90 90 84 82 82 81 85 84 85 85 86 84
61 61 61 61 61 61 61 60 59 60 62 63 64 81 92 96 112 111 110 108 110 109 104 110 109 103 101 89 80 76 75 80 90 90 86 87 78 78 82 84 84 84 85 85 86
61 60 60 61 61 61 62 61 60 62 65 66 66 87 91 110 112 110 112 109 112 111 109 111 111 105 95 96 69 62 67 66 88 89 82 76 63 79 82 83 82 82 83 84 85
61 60 60 61 61 62 61 60 61 64 68 69 82 89 93 96 103 109 112 106 109 110 111 110 107 88 78 72 78 70 60 64 82 92 85 79 72 81 84 84 82 82 80 83 83
61 60 60 60 61 61 59 61 66 69 75 91 96 91 100 97 106 107 111 110 105 105 102 101 95 88 74 68 70 79 76 78 81 87 87 84 79 81 83 84 84 84 81 83 84
60 60 59 60 60 60 70 96 94 89 95 93 96 95 102 107 109 104 108 104 105 100 90 97 87 82 86 83 89 88 82 75 86 89 85 84 83 80 83 84 83 83 82 85 85
60 60 60 60 60 60 72 94 93 96 83 99 100 101 104 107 96 102 109 95 95 88 94 92 84 92 95 94 90 85 80 73 86 88 86 84 82 85 84 83 84 84 85 86 83
59 59 59 59 60 74 98 96 105 103 85 93 99 98 100 102 95 97 104 98 92 88 90 86 91 96 92 90 83 83 80 81 82 87 88 82 79 82 85 86 87 88 87 88 84
59 59 59 57 74 97 96 103 106 102 77 86 92 98 102 101 91 107 107 100 93 87 91 90 97 92 90 86 86 77 88 87 85 80 60 71 69 78 81 80 84 86 87 87 86
58 58 58 56 84 92 99 105 104 96 63 89 93 108 103 95 98 98 108 100 90 89 91 87 91 89 87 84 91 84 91 82 79 75 59 56 60 76 82 77 81 85 88 89 90
58 58 56 77 87 98 105 104 97 74 65 85 94 91 92 95 96 100 100 103 101 92 93 91 98 94 91 93 93 93 85 79 77 74 53 58 62 71 73 82 86 87 88 90 91
57 58 60 83 88 103 104 94 74 68 90 84 86 91 90 88 90 92 90 87 84 77 79 88 89 95 94 88 91 89 80 67 59 65 56 75 73 76 85 88 88 89 88 90 91
56 55 72 88 98 101 95 81 66 83 84 93 90 91 86 90 89 88 86 83 89 87 82 78 74 87 93 89 84 82 79 67 57 61 67 77 66 69 88 90 91 92 93 92 91
54 87 88 97 100 98 85 72 76 83 88 86 88 83 84 89 88 86 84 84 89 90 78 77 73 87 93 95 91 78 75 84 74 75 70 73 74 77 86 87 89 89 90 91 90
77 86 93 104 100 92 80 68 82 88 88 89 80 86 80 85 84 85 84 90 88 94 95 85 73 84 89 94 94 88 90 73 69 53 54 63 68 63 77 83 87 86 87 89 91
77 82 98 104 98 86 75 82 87 91 90 84 84 83 86 85 86 85 85 91 93 93 95 90 82 81 86 81 79 74 73 71 68 67 60 62 66 80 80 82 82 87 89 90 91
81 79 99 101 81 84 82 87 69 89 91 88 88 87 85 87 84 85 84 89 97 95 87 91 82 74 80 89 91 85 81 77 68 61 67 70 69 82 82 81 69 82 90 93 94
79 85 99 96 76 81 87 86 87 86 87 87 86 88 89 84 79 85 88 92 93 91 84 87 79 70 73 82 83 77 80 80 71 57 54 56 68 85 82 74 69 68 70 92 92
79 79 88 89 88 80 82 82 82 90 87 88 87 89 86 84 88 83 86 91 92 91 73 82 79 75 69 74 82 77 80 83 77 66 64 75 76 77 70 66 63 64 70 91 91
81 82 86 78 82 83 83 83 81 81 88 90 86 86 85 80 84 83 88 89 91 76 87 86 75 80 82 85 85 81 82 82 78 77 70 76 78 72 70 71 74 73 87 89 90
76 82 89 85 84 83 71 79 81 84 86 83 82 88 87 81 84 80 85 84 85 87 86 86 75 80 78 84 83 79 82 83 84 82 81 81 79 89 75 71 79 65 66 79 85
88 91 84 75 81 80 81 81 83 86 87 90 89 86 84 86 91 92 92 90 89 85 82 82 78 75 70 81 80 71 79 82 83 85 82 75 82 88 85 80 80 81 81 82 85
MSLP
1019.44 1018.98 1018.56 1018.08 1017.61 1017.16 1016.67 1016.15 1015.70 1015.34 1015.07 1014.74 1014.56 1014.18 1013.81 1013.40 1012.07 1011.78 1009.94 1008.91 1008.79 1009.01 1009.63 1008.34 1007.38 1006.55 1005.56 1004.70 1005.27 1008.11 1011.40 1011.36 1009.17 1009.22 1007.91 1008.12 1009.19 1010.31 1010.88 1011.62 1012.55 1014.01 1014.54 1014.11 1013.99
1019.32 1019.05 1018.66 1018.08 1017.45 1017.06 1016.61 1016.09 1015.55 1015.09 1014.80 1014.58 1014.40 1014.09 1013.81 1013.50 1011.71 1009.47 1009.01 1008.88 1008.96 1009.17 1009.11 1007.60 1006.24 1005.28 1004.83 1004.15 1004.84 1008.32 1010.76 1007.74 1006.74 1006.72 1007.35 1008.18 1009.34 1010.71 1011.59 1012.44 1013.20 1013.72 1014.07 1014.14 1014.47
1019.34 1018.99 1018.56 1018.00 1017.29 1016.86 1016.43 1015.94 1015.40 1014.90 1014.51 1014.46 1014.28 1013.94 1013.74 1013.52 1011.27 1008.04 1008.61 1008.93 1009.10 1009.34 1008.92 1007.57 1006.34 1005.71 1005.69 1004.46 1004.84 1006.27 1006.97 1006.73 1006.98 1006.76 1007.32 1008.27 1009.56 1010.64 1011.89 1012.70 1013.50 1013.70 1014.19 1014.93 1015.51
1019.29 1018.85 1018.40 1017.91 1017.24 1016.59 1016.11 1015.65 1015.17 1014.71 1014.29 1014.26 1014.20 1013.91 1013.63 1012.51 1009.40 1008.19 1008.78 1009.05 1009.24 1009.25 1008.51 1006.86 1006.46 1006.73 1006.03 1005.83 1006.16 1005.94 1006.64 1006.79 1006.92 1007.05 1007.66 1008.61 1010.40 1010.98 1011.99 1013.28 1013.59 1014.01 1014.72 1015.25 1015.87
1019.29 1018.85 1018.27 1017.80 1017.18 1016.42 1015.76 1015.31 1014.96 1014.45 1014.13 1014.04 1014.09 1013.89 1013.29 1011.08 1007.89 1008.33 1008.94 1009.12 1009.00 1008.86 1007.65 1006.12 1006.14 1005.76 1005.73 1006.84 1007.26 1006.68 1007.11 1007.17 1007.44 1007.82 1008.53 1009.35 1010.66 1012.04 1013.05 1013.76 1014.22 1014.60 1014.83 1015.41 1015.93
1019.38 1018.80 1018.13 1017.53 1017.01 1016.21 1015.56 1014.95 1014.66 1014.14 1013.86 1013.80 1013.95 1014.00 1012.56 1009.21 1006.91 1007.92 1008.15 1008.27 1007.91 1007.30 1006.19 1005.28 1004.36 1005.09 1005.73 1007.11 1008.48 1007.52 1007.95 1007.66 1007.73 1008.45 1008.99 1010.24 1011.48 1012.25 1013.47 1013.92 1014.29 1014.43 1014.71 1015.19 1015.85
1019.42 1018.71 1018.08 1017.53 1016.69 1016.07 1015.30 1014.65 1014.35 1013.85 1013.55 1013.50 1013.75 1013.09 1010.73 1007.63 1006.54 1007.09 1007.08 1007.03 1006.67 1006.13 1005.30 1004.58 1004.35 1004.65 1005.04 1006.49 1008.79 1011.22 1010.67 1010.04 1007.83 1008.44 1009.31 1010.45 1011.22 1012.01 1013.28 1013.67 1013.76 1014.00 1014.59 1015.28 1015.66
1019.43 1018.64 1018.05 1017.33 1016.47 1015.75 1015.00 1014.42 1014.02 1013.55 1013.29 1013.26 1013.53 1012.45 1008.93 1006.92 1006.78 1006.66 1006.65 1006.36 1006.27 1005.98 1005.54 1005.10 1004.78 1004.79 1006.32 1007.94 1010.80 1013.75 1012.99 1011.57 1007.72 1008.15 1009.90 1010.68 1011.40 1011.95 1013.07 1013.06 1013.29 1013.91 1014.27 1014.84 1015.47
1019.26 1018.60 1018.01 1017.03 1016.22 1015.39 1014.67 1014.07 1013.45 1013.14 1013.00 1013.07 1012.91 1011.32 1007.68 1007.53 1006.96 1006.66 1006.33 1005.96 1005.81 1005.67 1005.40 1005.46 1005.02 1006.75 1008.72 1009.70 1010.45 1012.40 1011.71 1010.49 1007.50 1007.40 1008.61 1009.51 1009.95 1011.13 1012.33 1012.25 1012.51 1013.11 1013.78 1014.28 1015.14
1019.24 1018.59 1017.86 1016.95 1016.20 1015.24 1014.32 1013.33 1012.93 1012.68 1012.49 1011.87 1010.80 1009.76 1007.21 1006.43 1006.30 1006.59 1006.33 1005.94 1005.58 1005.43 1005.21 1005.25 1005.52 1006.89 1009.56 1010.77 1008.67 1007.75 1008.06 1007.49 1006.38 1006.87 1007.41 1007.38 1008.56 1010.05 1011.22 1011.39 1011.55 1012.16 1013.35 1013.57 1014.25
1019.25 1018.68 1017.77 1016.84 1016.11 1015.42 1014.11 1012.32 1012.51 1011.97 1010.75 1008.98 1008.02 1007.14 1005.18 1005.55 1006.24 1006.43 1006.39 1006.37 1005.76 1005.57 1005.08 1004.64 1005.12 1005.51 1005.93 1007.21 1006.17 1005.82 1006.08 1007.00 1006.05 1006.45 1006.70 1006.59 1007.37 1008.98 1010.18 1010.81 1010.97 1011.51 1012.33 1012.60 1013.35
1019.27 1018.50 1017.61 1016.71 1015.93 1015.07 1014.87 1012.29 1011.87 1011.18 1009.98 1007.89 1007.21 1006.53 1006.11 1005.72 1006.02 1006.11 1006.34 1006.57 1005.98 1005.44 1004.63 1004.04 1003.96 1004.24 1004.37 1004.63 1004.85 1005.46 1006.31 1006.11 1005.73 1006.20 1006.60 1006.37 1006.87 1007.69 1008.86 1009.97 1010.56 1011.02 1011.45 1011.78 1012.90
1019.20 1018.27 1017.62 1016.68 1015.75 1014.46 1012.48 1011.81 1010.89 1010.40 1009.67 1007.30 1006.63 1006.32 1005.98 1006.30 1005.66 1005.57 1005.95 1006.07 1005.84 1005.53 1004.62 1004.15 1003.81 1003.72 1004.14 1004.07 1005.40 1005.68 1006.01 1005.85 1005.80 1006.03 1006.24 1006.91 1006.23 1006.62 1007.79 1008.90 1009.56 1010.10 1010.75 1011.11 1012.03
1018.92 1018.25 1017.81 1016.86 1015.46 1012.97 1011.48 1011.13 1010.68 1010.82 1009.41 1006.33 1005.90 1005.33 1005.24 1005.75 1005.66 1004.99 1005.43 1005.83 1005.73 1005.36 1004.65 1004.28 1003.51 1003.80 1003.98 1004.55 1004.88 1005.20 1005.72 1005.74 1006.02 1006.61 1009.00 1009.38 1007.11 1006.62 1007.53 1008.37 1008.68 1008.97 1009.38 1010.22 1011.11
1018.93 1018.46 1018.06 1018.18 1016.07 1012.90 1011.53 1011.10 1010.95 1010.91 1007.86 1005.71 1005.12 1004.49 1004.81 1005.19 1004.89 1004.76 1004.95 1005.47 1005.29 1005.15 1004.82 1003.99 1003.53 1003.56 1003.79 1004.81 1004.72 1004.93 1005.37 1006.58 1007.72 1008.74 1010.64 1011.41 1010.44 1006.67 1007.42 1007.50 1007.52 1007.85 1008.34 1008.99 1009.84
1018.93 1018.56 1018.34 1016.30 1015.21 1012.50 1011.25 1011.11 1010.95 1010.08 1006.23 1004.85 1004.71 1004.96 1004.69 1004.76 1004.42 1004.35 1004.68 1005.26 1005.34 1005.19 1004.74 1004.36 1004.20 1004.49 1004.33 1004.52 1004.58 1005.01 1005.84 1006.88 1008.18 1009.26 1011.64 1010.88 1010.44 1006.86 1006.53 1005.91 1005.99 1006.53 1007.42 1008.15 1009.13
1018.75 1018.41 1018.53 1016.58 1013.70 1011.94 1011.56 1010.94 1009.94 1007.56 1005.13 1004.52 1004.40 1004.51 1004.56 1004.58 1004.56 1004.66 1004.94 1005.29 1005.41 1005.42 1004.84 1004.13 1004.29 1004.09 1004.80 1004.57 1004.68 1005.22 1005.79 1006.69 1008.55 1008.16 1009.67 1008.03 1007.13 1005.99 1005.80 1005.60 1005.64 1005.75 1006.50 1007.52 1008.67
1018.35 1018.11 1016.14 1014.95 1013.38 1012.36 1011.87 1010.86 1008.75 1005.31 1004.58 1004.30 1004.13 1004.19 1004.12 1004.13 1004.63 1004.80 1004.87 1005.10 1005.52 1005.40 1004.74 1004.27 1004.63 1005.00 1004.90 1004.79 1004.85 1005.83 1006.51 1007.72 1007.52 1007.56 1007.76 1007.34 1007.27 1006.90 1005.99 1005.89 1005.87 1005.98 1006.06 1006.81 1007.88
1017.89 1015.76 1014.43 1012.60 1012.48 1012.47 1011.76 1009.55 1007.01 1005.62 1005.24 1004.86 1004.62 1004.16 1003.87 1003.92 1004.43 1005.07 1005.08 1004.82 1004.79 1005.05 1005.09 1004.84 1005.41 1005.51 1004.90 1004.75 1005.08 1006.16 1006.46 1006.62 1007.19 1007.76 1007.51 1007.02 1007.23 1007.38 1006.00 1005.68 1005.72 1006.05 1006.27 1006.32 1007.16
1017.89 1015.20 1012.11 1011.10 1012.03 1012.14 1011.09 1008.90 1007.23 1006.72 1006.37 1005.82 1004.53 1004.03 1003.60 1003.73 1004.24 1004.11 1004.25 1004.42 1004.28 1004.19 1004.36 1004.70 1005.46 1005.94 1005.70 1005.36 1005.12 1005.30 1006.18 1007.13 1008.65 1009.76 1009.84 1008.30 1007.57 1007.31 1006.79 1005.83 1006.30 1006.14 1006.60 1006.56 1006.79
1017.88 1014.04 1010.94 1011.00 1011.85 1011.36 1009.75 1007.81 1007.10 1007.05 1007.01 1006.46 1005.18 1004.34 1003.79 1003.48 1003.92 1003.67 1003.77 1003.75 1003.85 1003.79 1004.15 1004.61 1005.13 1005.51 1005.99 1005.57 1005.73 1007.16 1007.95 1008.93 1009.92 1010.27 1009.80 1008.36 1008.11 1007.54 1007.65 1006.91 1007.67 1006.85 1006.48 1006.69 1006.75
1016.50 1012.62 1010.85 1011.07 1011.19 1009.98 1008.66 1007.87 1008.47 1007.32 1007.07 1006.69 1006.33 1005.38 1004.56 1004.02 1003.79 1003.54 1003.61 1003.42 1003.41 1004.06 1004.35 1004.94 1005.63 1005.65 1005.28 1005.13 1005.64 1006.72 1007.19 1008.40 1009.44 1010.64 1010.63 1008.98 1007.83 1007.60 1007.55 1008.45 1009.30 1008.62 1007.09 1006.30 1006.27
1015.36 1012.12 1010.78 1010.93 1009.94 1008.73 1008.21 1008.16 1008.11 1007.64 1007.12 1006.73 1006.31 1006.04 1005.67 1005.12 1004.89 1004.34 1003.91 1004.80 1004.90 1004.95 1005.69 1005.96 1006.00 1006.08 1005.83 1005.64 1006.53 1007.15 1007.42 1008.33 1009.46 1010.35 1011.55 1009.95 1007.41 1006.88 1008.55 1009.79 1011.22 1010.63 1009.61 1006.79 1006.52
1015.40 1011.44 1010.38 1010.63 1010.00 1009.41 1008.01 1007.96 1007.82 1007.82 1007.77 1007.48 1006.92 1006.48 1005.99 1005.46 1005.25 1004.95 1004.57 1004.99 1005.65 1005.92 1006.55 1006.79 1006.79 1006.53 1006.17 1005.67 1005.69 1005.99 1006.45 1006.87 1007.83 1009.09 1009.27 1007.01 1006.85 1007.71 1009.86 1011.11 1011.65 1011.43 1008.74 1006.84 1006.37
1015.00 1011.09 1010.01 1009.48 1009.41 1009.01 1008.88 1008.24 1007.79 1007.47 1007.74 1007.32 1006.87 1006.48 1005.94 1005.66 1005.12 1005.17 1004.95 1004.88 1005.73 1006.46 1006.78 1007.09 1007.08 1006.88 1006.24 1005.59 1004.88 1004.89 1005.15 1005.48 1005.72 1006.12 1007.16 1006.11 1006.45 1008.21 1009.29 1009.65 1010.28 1010.10 1008.19 1005.30 1006.24
1014.75 1011.49 1010.07 1009.38 1009.31 1008.92 1009.30 1008.78 1008.06 1007.51 1007.36 1007.29 1007.13 1006.38 1006.34 1006.28 1005.66 1005.44 1005.29 1005.44 1005.30 1006.40 1006.77 1007.11 1007.34 1006.97 1006.16 1005.53 1005.28 1005.22 1004.97 1004.66 1004.48 1005.06 1005.55 1005.66 1005.77 1006.23 1007.99 1008.27 1009.87 1011.65 1012.38 1010.05 1007.85
1013.95 1012.19 1011.47 1009.79 1009.73 1009.20 1008.68 1008.68 1008.17 1008.02 1007.82 1007.45 1007.02 1006.81 1006.88 1006.76 1006.42 1006.40 1006.18 1006.18 1006.17 1006.20 1006.53 1006.85 1007.16 1007.07 1006.32 1005.79 1005.63 1005.37 1004.95 1004.69 1004.89 1005.44 1005.57 1005.60 1005.93 1006.19 1007.15 1008.72 1009.48 1010.13 1010.09 1009.52 1008.80
Wind_Speed
15 15 16 17 15 16 16 15 16 15 13 13 12 14 14 16 20 6 9 2 2 12 2 11 11 13 15 18 11 17 3 9 14 17 11 13 15 18 14 17 18 11 12 10 9
16 15 14 17 17 16 15 14 16 15 14 13 12 13 13 14 9 13 6 6 7 11 8 11 13 12 12 11 10 15 3 2 11 16 16 16 18 13 12 15 15 13 12 10 13
17 16 15 16 18 17 16 13 15 16 14 12 11 12 12 11 9 6 7 7 8 9 10 16 14 15 16 10 8 14 6 14 13 12 13 11 17 15 15 11 12 12 13 13 11
17 17 17 16 18 18 17 14 15 15 15 12 11 11 12 6 3 8 7 8 7 7 12 17 6 4 14 21 19 14 13 14 11 15 13 17 14 7 14 14 10 15 12 12 12
17 17 18 16 17 18 18 16 14 14 14 12 10 9 7 8 6 10 8 8 9 9 14 16 2 9 10 16 12 10 10 11 13 13 13 14 14 11 12 11 11 11 11 11 10
16 17 18 18 17 18 18 17 14 14 12 10 7 5 6 10 9 14 13 11 12 14 17 15 10 13 18 12 10 10 12 10 10 11 8 16 14 9 9 9 10 10 10 9 9
17 16 17 18 19 18 18 17 14 13 11 7 4 6 9 9 4 12 12 10 12 10 13 9 14 4 6 17 25 26 11 21 8 12 13 10 5 9 12 12 10 9 9 8 8
16 16 17 18 19 20 19 17 14 12 9 4 2 6 8 4 6 8 9 11 7 11 12 12 8 11 19 7 12 4 9 10 12 16 17 15 8 11 13 13 11 11 9 9 7
17 16 17 18 20 21 20 20 15 11 7 4 5 7 9 4 8 8 10 11 8 9 8 7 12 16 26 15 8 16 8 16 14 7 19 11 6 17 17 15 14 14 10 11 10
17 17 18 18 20 22 24 11 2 8 7 8 10 7 10 11 12 7 12 11 6 8 8 9 1 1 11 7 12 5 5 8 13 11 7 13 12 18 18 15 15 14 13 13 11
17 17 17 19 19 19 16 8 6 6 10 11 10 14 6 10 9 8 9 8 10 9 13 15 11 11 14 24 17 15 18 16 10 5 4 8 11 21 18 14 10 10 14 10 10
16 18 18 20 20 23 8 9 9 7 10 14 14 21 10 7 10 13 12 8 12 13 17 14 6 5 9 8 11 18 7 8 8 0 4 6 4 20 19 15 12 11 9 9 11
15 17 18 23 23 10 8 6 8 8 7 14 10 12 11 7 14 16 15 14 14 13 18 11 14 9 11 10 12 7 14 16 10 7 8 11 16 12 15 15 13 13 13 9 12
15 17 17 25 1 14 9 8 9 6 6 11 10 9 9 13 15 17 17 15 14 17 20 8 15 5 12 13 8 0 8 13 16 17 11 24 5 13 13 10 12 13 13 14 15
15 16 16 1 12 8 9 10 8 4 6 14 15 6 11 15 15 18 19 18 19 19 19 14 11 6 13 1 11 12 10 12 18 10 7 18 9 11 11 13 16 15 13 11 13
15 15 16 2 7 14 11 12 7 7 5 8 10 10 11 15 14 13 14 17 17 17 19 14 4 6 13 9 8 8 7 5 5 3 6 19 13 6 10 4 3 18 14 13 11
15 14 9 9 8 16 11 9 7 8 5 11 13 14 14 13 18 10 15 16 16 13 16 16 14 6 3 15 9 20 17 2 4 5 5 2 9 9 11 9 3 1 16 14 10
17 14 9 10 12 13 8 9 8 3 3 6 3 10 12 11 14 13 14 17 18 22 16 10 5 11 6 15 9 7 1 7 9 11 7 5 4 4 4 6 4 2 1 17 15
20 8 6 11 12 5 8 9 9 14 10 7 7 6 11 13 12 15 15 16 20 20 17 15 6 14 11 14 5 1 2 9 11 14 13 2 8 7 15 8 7 3 2 6 13
8 10 13 7 3 6 7 12 10 4 5 8 11 9 10 12 9 14 15 16 19 20 17 14 3 15 15 14 13 12 10 11 5 3 9 15 9 5 13 9 5 6 5 4 9
5 7 5 5 5 6 9 7 2 6 4 7 12 5 11 8 11 12 8 13 16 17 11 10 7 1 6 5 12 13 15 7 3 2 5 8 10 5 17 11 14 6 6 7 9
6 8 8 5 7 8 11 9 3 6 2 4 5 9 11 11 2 7 3 1 6 12 5 9 4 11 14 4 7 3 13 7 2 7 12 15 1 7 2 11 8 17 3 7 8
6 10 6 6 7 9 6 5 3 5 3 3 4 3 4 7 3 10 5 8 10 4 7 7 5 8 13 16 10 6 17 4 6 7 12 13 3 7 9 18 19 23 30 3 2
7 6 5 6 10 11 4 6 8 7 6 5 9 4 6 6 3 5 5 5 6 3 3 4 7 9 12 16 14 7 13 9 8 5 19 10 13 15 14 13 16 17 26 6 9
6 7 3 6 10 10 5 6 7 6 8 5 6 10 6 4 5 7 8 8 7 4 1 1 6 11 16 19 21 11 19 18 16 16 15 13 15 16 12 13 16 19 12 7 5
6 5 2 6 7 10 6 9 9 7 5 10 9 11 1 8 7 10 14 11 3 9 7 6 6 11 15 17 10 11 20 21 7 10 13 14 13 14 9 3 7 23 5 14 17
7 8 6 6 7 8 10 10 8 7 2 13 9 6 7 8 9 11 7 5 6 5 7 7 6 9 14 5 11 9 15 10 9 10 10 10 14 14 13 17 15 14 11 11 13
Wind_Direction
336 331 327 324 324 321 321 321 317 317 316 314 319 315 319 319 303 214 234 97 95 163 267 276 239 260 266 256 98 74 72 243 123 164 112 88 82 73 59 74 90 146 151 118 73
333 328 326 320 321 318 316 318 312 311 312 313 318 316 321 331 273 242 113 147 159 161 226 242 287 296 270 261 86 108 175 87 97 98 96 82 107 116 108 98 98 93 96 104 79
327 326 325 323 317 316 312 314 306 306 308 312 317 317 318 313 265 200 135 171 184 178 275 293 295 360 322 52 32 108 104 71 56 64 92 101 88 106 112 92 104 122 103 96 99
325 326 323 322 315 314 310 313 308 307 308 311 315 315 317 260 276 109 155 173 186 243 267 269 42 12 274 39 355 75 61 63 59 48 67 94 105 71 106 115 116 93 107 103 90
324 322 320 318 315 312 309 313 312 308 305 309 314 315 281 234 260 139 163 171 201 223 251 276 82 229 110 87 312 78 86 88 70 69 93 84 83 90 90 95 96 119 126 107 115
319 319 320 318 316 311 308 313 313 308 305 306 307 308 250 259 93 157 183 176 246 220 254 253 250 202 124 141 194 87 49 105 112 104 101 95 118 128 128 132 136 155 122 123 101
316 319 318 316 316 312 310 312 311 307 306 309 297 271 263 288 162 172 204 214 225 262 298 324 340 289 11 93 55 7 14 326 155 122 125 112 180 123 149 170 168 148 148 121 123
314 318 316 315 317 312 312 308 301 295 306 313 249 262 279 105 286 189 201 227 253 265 272 307 296 300 84 89 65 314 351 307 155 151 111 109 260 148 168 191 164 163 159 165 125
316 317 313 321 317 314 316 303 288 272 273 269 237 230 261 121 203 210 222 239 220 258 282 313 292 70 33 318 292 172 209 232 148 163 159 162 177 194 185 198 174 174 163 175 170
316 316 314 319 316 317 318 283 355 272 212 233 256 253 237 218 177 184 242 263 237 265 256 237 68 118 153 188 275 102 42 194 123 153 182 221 157 157 185 210 177 174 184 168 195
316 311 314 316 316 318 331 283 292 189 238 256 206 237 166 125 123 202 223 245 250 262 262 233 183 251 164 207 257 48 48 358 323 99 286 275 153 167 179 204 206 171 184 192 187
314 313 319 317 313 313 271 349 16 326 301 271 268 218 309 153 197 210 179 226 237 257 262 277 270 263 346 326 335 21 58 224 249 206 295 251 217 160 167 190 199 190 227 191 149
314 318 322 319 313 289 296 3 311 333 265 243 219 225 213 229 238 199 191 212 246 250 271 304 283 34 306 306 17 324 323 321 352 326 209 262 255 164 161 178 196 200 188 227 159
321 319 330 324 282 327 289 358 343 22 272 156 199 221 192 197 227 213 196 221 236 263 270 264 287 359 288 42 153 46 256 303 354 343 30 338 329 154 160 180 192 204 202 193 171
320 317 321 21 302 300 350 322 1 268 261 146 181 156 203 210 210 224 194 219 241 250 272 287 303 343 334 176 316 328 3 53 4 5 67 289 291 121 154 195 205 200 206 202 166
317 317 334 225 239 257 332 324 281 238 222 146 146 202 214 205 226 203 216 209 244 263 274 273 300 294 306 315 303 327 82 74 301 305 64 256 241 131 201 146 306 184 187 196 168
314 307 308 312 276 329 322 289 236 253 150 140 174 182 206 195 224 213 197 215 226 238 254 255 257 238 328 285 37 306 344 340 263 219 189 282 288 83 60 53 54 114 170 167 162
310 307 250 251 281 288 300 264 258 296 128 75 230 181 206 186 212 233 196 220 217 250 266 277 246 310 301 273 306 42 310 27 300 336 329 78 85 117 72 85 66 14 278 165 173
306 264 241 237 226 291 274 246 280 9 36 317 179 227 209 181 205 201 228 222 224 220 254 276 36 315 277 263 290 328 271 295 310 328 301 208 153 339 318 144 111 145 183 177 173
318 297 269 168 141 253 254 259 297 20 356 267 269 216 196 185 200 205 204 221 233 233 225 264 200 217 272 317 263 257 6 334 80 31 342 319 48 181 265 64 96 146 171 215 145
269 239 115 186 185 242 246 274 118 74 345 310 333 335 284 177 195 240 235 211 221 253 218 251 272 242 162 223 4 34 287 58 72 287 246 313 35 35 17 76 17 337 170 179 180
260 247 130 179 232 229 246 331 356 305 204 266 302 304 330 341 236 283 175 134 215 227 258 241 291 288 290 208 205 219 336 38 274 314 318 302 10 322 103 72 116 266 212 199 206
250 254 150 209 240 240 198 265 243 262 270 306 268 295 358 314 313 291 88 71 35 357 21 350 260 270 272 267 76 293 287 191 132 83 245 253 355 245 76 43 7 339 316 183 177
274 218 156 210 265 288 292 227 204 196 276 278 299 305 271 267 214 292 272 112 92 43 67 18 300 294 285 304 289 220 260 249 213 189 260 322 323 75 82 93 123 243 272 272 160
253 244 341 190 222 240 276 331 216 201 222 227 269 263 253 283 222 208 278 142 169 132 175 251 280 279 281 281 288 192 257 233 233 233 258 336 341 119 151 182 206 227 302 211 131
293 271 202 288 329 196 142 251 252 234 222 222 247 266 256 271 352 348 10 14 220 160 223 167 274 287 287 286 353 335 321 299 353 358 335 342 333 29 177 145 40 68 316 334 9
247 280 285 217 205 248 218 226 216 271 281 265 286 308 252 7 6 343 323 326 322 338 203 231 260 285 290 343 295 258 243 274 17 355 341 335 3 33 33 63 57 66 38 29 22